Weather History for Orr, MN

Change the Weather History Date:

Wednesday, July 24, 2013

  Actual Average Record
Temperature  
Mean Temperature 58 °F -  
Max Temperature 75 °F 74 °F 95 °F (2007)
Min Temperature 42 °F 52 °F 6 °F (1999)
Degree Days  
Heating Degree Days 6    
Growing Degree Days 8 (Base 50)    
Moisture  
Dew Point 49 °F    
Average Humidity 70    
Maximum Humidity 94    
Minimum Humidity 38    
Precipitation  
Precipitation 0.00 in - - ()
Sea Level Pressure  
Sea Level Pressure 29.97 in    
Wind  
Wind Speed 1 mph (WSW)    
Max Wind Speed 10 mph    
Max Gust Speed -    
Visibility 10 miles    
Events      
Averages and records for this station are not official NWS values.
T = Trace of Precipitation, MM = Missing Value Source: NWS Daily Summary

Daily Weather History Graph

Daily Weather History Graph

Search for Another Location

Airport:

Trip Planner

Search our weather history database for the weather conditions in past years. The results will help you decide how hot, cold, wet, or windy it might be!

Date:

Astronomy

Jul. 24, 2013 Rise Set
Actual Time 5:37 AM CDT 8:57 PM CDT
Civil Twilight 5:00 AM CDT 9:34 PM CDT
Nautical Twilight 4:10 AM CDT 10:24 PM CDT
Astronomical Twilight 3:05 AM CDT 11:27 PM CDT
Moon 9:45 PM CDT (7/24) 8:13 AM CDT (7/24)
Length of Visible Light 16h 34m
Length of Day
15h 19m
Waning Gibbous, 94% of the Moon is Illuminated
Jul 24
Waning Gibbous
Jul 29
Last Quarter
Aug 6
New
Aug 14
First Quarter
Aug 20
Full

Hourly Weather History & Observations

Time (CDT) Temp. Dew Point Humidity Pressure Visibility Wind Dir Wind Speed Gust Speed Precip Events Conditions
12:13 AM 48.2 °F 46.4 °F 93% 30.02 in 10.0 mi Calm Calm - N/A   Clear
12:33 AM 48.2 °F 46.4 °F 93% 30.02 in 10.0 mi Calm Calm - N/A   Clear
12:53 AM 48.2 °F 44.6 °F 87% 30.02 in 10.0 mi Calm Calm - N/A   Clear
1:13 AM 48.2 °F 46.4 °F 93% 30.02 in 10.0 mi Calm Calm - N/A   Clear
1:33 AM 48.2 °F 46.4 °F 93% 30.02 in 10.0 mi Calm Calm - N/A   Clear
1:53 AM 46.4 °F 44.6 °F 93% 30.02 in 10.0 mi Calm Calm - N/A   Clear
2:13 AM 46.4 °F 44.6 °F 93% 30.02 in 10.0 mi Calm Calm - N/A   Clear
2:33 AM 44.6 °F 42.8 °F 93% 30.03 in 10.0 mi Calm Calm - N/A   Clear
2:53 AM 46.4 °F 44.6 °F 93% 30.03 in 10.0 mi Calm Calm - N/A   Clear
3:13 AM 46.4 °F 44.6 °F 93% 30.03 in 10.0 mi Calm Calm - N/A   Clear
3:33 AM 46.4 °F 44.6 °F 93% 30.02 in 10.0 mi Calm Calm - N/A   Clear
3:53 AM 42.8 °F 41.0 °F 93% 30.02 in 10.0 mi Calm Calm - N/A   Mostly Cloudy
4:13 AM 44.6 °F 42.8 °F 93% 30.02 in 10.0 mi Calm Calm - N/A   Overcast
4:33 AM 46.4 °F 42.8 °F 87% 30.02 in 10.0 mi Calm Calm - N/A   Overcast
4:53 AM 46.4 °F 44.6 °F 93% 30.02 in 10.0 mi Calm Calm - N/A   Overcast
5:13 AM 44.6 °F 42.8 °F 93% 30.03 in 10.0 mi Calm Calm - N/A   Overcast
5:33 AM 48.2 °F 46.4 °F 93% 30.03 in 10.0 mi Calm Calm - N/A   Mostly Cloudy
5:53 AM 48.2 °F 46.4 °F 93% 30.03 in 10.0 mi Calm Calm - N/A   Mostly Cloudy
6:13 AM 48.2 °F 46.4 °F 93% 30.03 in 10.0 mi Calm Calm - N/A   Overcast
6:33 AM 48.2 °F 46.4 °F 93% 30.03 in 10.0 mi Calm Calm - N/A   Mostly Cloudy
6:53 AM 50.0 °F 48.2 °F 94% 30.03 in 10.0 mi Calm Calm - N/A   Mostly Cloudy
7:13 AM 51.8 °F 48.2 °F 88% 30.03 in 10.0 mi Calm Calm - N/A   Mostly Cloudy
7:33 AM 51.8 °F 48.2 °F 88% 30.03 in 10.0 mi Calm Calm - N/A   Scattered Clouds
7:53 AM 51.8 °F 48.2 °F 88% 30.04 in 10.0 mi Calm Calm - N/A   Clear
8:13 AM 55.4 °F 50.0 °F 82% 30.04 in 10.0 mi Calm Calm - N/A   Clear
8:33 AM 59.0 °F 51.8 °F 77% 30.03 in 10.0 mi Calm Calm - N/A   Clear
8:53 AM 62.6 °F 50.0 °F 63% 30.03 in 10.0 mi WSW 3.5 mph - N/A   Clear
9:13 AM 64.4 °F 51.8 °F 64% 30.03 in 10.0 mi Calm Calm - N/A   Clear
9:33 AM 66.2 °F 51.8 °F 60% 30.02 in 10.0 mi SW 3.5 mph - N/A   Clear
9:53 AM 66.2 °F 51.8 °F 60% 30.02 in 10.0 mi SW 3.5 mph - N/A   Clear
10:13 AM 68.0 °F 50.0 °F 52% 30.02 in 10.0 mi West 6.9 mph - N/A   Clear
10:33 AM 69.8 °F 51.8 °F 53% 30.01 in 10.0 mi Calm Calm - N/A   Clear
10:53 AM 68.0 °F 50.0 °F 52% 30.01 in 10.0 mi SSW 4.6 mph - N/A   Clear
11:13 AM 69.8 °F 48.2 °F 46% 30.01 in 10.0 mi WSW 5.8 mph - N/A   Clear
11:33 AM 69.8 °F 48.2 °F 46% 30.00 in 10.0 mi WSW 3.5 mph - N/A   Scattered Clouds
11:53 AM 71.6 °F 50.0 °F 46% 30.00 in 10.0 mi West 3.5 mph - N/A   Scattered Clouds
12:13 PM 69.8 °F 48.2 °F 46% 30.00 in 10.0 mi WSW 5.8 mph - N/A   Scattered Clouds
12:33 PM 71.6 °F 48.2 °F 43% 29.98 in 10.0 mi SW 3.5 mph - N/A   Clear
12:53 PM 73.4 °F 48.2 °F 41% 29.97 in 10.0 mi West 6.9 mph - N/A   Scattered Clouds
1:13 PM 73.4 °F 48.2 °F 41% 29.97 in 10.0 mi West 4.6 mph - N/A   Clear
1:33 PM 73.4 °F 48.2 °F 41% 29.96 in 10.0 mi West 6.9 mph - N/A   Scattered Clouds
1:53 PM 73.4 °F 48.2 °F 41% 29.96 in 10.0 mi West 10.4 mph - N/A   Scattered Clouds
2:13 PM 73.4 °F 48.2 °F 41% 29.96 in 10.0 mi West 5.8 mph - N/A   Clear
2:38 PM 73.4 °F 48.2 °F 41% 29.95 in 10.0 mi West 5.8 mph - N/A   Clear
2:53 PM 75.2 °F 48.2 °F 38% 29.95 in 10.0 mi WSW 4.6 mph - N/A   Clear
3:13 PM 71.6 °F 48.2 °F 43% 29.95 in 10.0 mi West 9.2 mph - N/A   Scattered Clouds
3:33 PM 71.6 °F 50.0 °F 46% 29.94 in 10.0 mi Calm Calm - N/A   Scattered Clouds
4:13 PM 71.6 °F 48.2 °F 43% 29.93 in 10.0 mi West 8.1 mph - N/A   Clear
4:33 PM 71.6 °F 50.0 °F 46% 29.93 in 10.0 mi WSW 6.9 mph - N/A   Clear
4:53 PM 71.6 °F 50.0 °F 46% 29.92 in 10.0 mi WSW 5.8 mph - N/A   Scattered Clouds
5:13 PM 71.6 °F 51.8 °F 50% 29.92 in 10.0 mi WSW 4.6 mph - N/A   Clear
5:35 PM 71.6 °F 51.8 °F 50% 29.92 in 10.0 mi West 5.8 mph - N/A   Clear
5:53 PM 69.8 °F 51.8 °F 53% 29.91 in 10.0 mi WSW 5.8 mph - N/A   Scattered Clouds
6:13 PM 69.8 °F 51.8 °F 53% 29.92 in 10.0 mi Calm Calm - N/A   Mostly Cloudy
6:33 PM 68.0 °F 51.8 °F 56% 29.92 in 10.0 mi Calm Calm - N/A   Overcast
6:53 PM 68.0 °F 53.6 °F 60% 29.91 in 10.0 mi Calm Calm - N/A   Mostly Cloudy
7:13 PM 69.8 °F 51.8 °F 53% 29.90 in 10.0 mi Calm Calm - N/A   Mostly Cloudy
7:33 PM 68.0 °F 53.6 °F 60% 29.90 in 10.0 mi Calm Calm - N/A   Mostly Cloudy
7:53 PM 68.0 °F 55.4 °F 64% 29.90 in 10.0 mi Calm Calm - N/A   Mostly Cloudy
8:13 PM 64.4 °F 55.4 °F 73% 29.89 in 10.0 mi Calm Calm - N/A   Mostly Cloudy
8:33 PM 64.4 °F 55.4 °F 73% 29.89 in 10.0 mi Calm Calm - N/A   Mostly Cloudy
8:53 PM 62.6 °F 55.4 °F 77% 29.88 in 10.0 mi Calm Calm - N/A   Mostly Cloudy
9:13 PM 60.8 °F 55.4 °F 82% 29.88 in 10.0 mi Calm Calm - N/A   Scattered Clouds
9:33 PM 60.8 °F 53.6 °F 77% 29.89 in 10.0 mi Calm Calm - N/A   Clear
9:53 PM 60.8 °F 53.6 °F 77% 29.89 in 10.0 mi Calm Calm - N/A   Clear
10:13 PM 62.6 °F 53.6 °F 72% 29.90 in 10.0 mi Calm Calm - N/A   Clear
10:33 PM 60.8 °F 53.6 °F 77% 29.90 in 10.0 mi Calm Calm - N/A   Mostly Cloudy
10:53 PM 57.2 °F 53.6 °F 88% 29.90 in 10.0 mi Calm Calm - N/A   Scattered Clouds
11:13 PM 57.2 °F 53.6 °F 88% 29.89 in 10.0 mi Calm Calm - N/A   Clear
11:33 PM 60.8 °F 53.6 °F 77% 29.89 in 10.0 mi Calm Calm - N/A   Clear
11:53 PM 57.2 °F 53.6 °F 88% 29.89 in 10.0 mi Calm Calm - N/A   Clear